TimeCST,TemperatureF,Dew PointF,Humidity,Sea Level PressureIn,VisibilityMPH,Wind Direction,Wind SpeedMPH,Gust SpeedMPH,PrecipitationIn,Events,Conditions,WindDirDegrees,DateUTC
12:12 AM,26.6,11.7,53,30.15,10.0,NW,15.0,19.6,N/A,,Unknown,320,2012-11-26 06:12:00
12:32 AM,25.7,9.7,51,30.16,10.0,NW,11.5,21.9,N/A,,Unknown,320,2012-11-26 06:32:00
12:52 AM,24.6,8.6,51,30.17,10.0,NW,12.7,18.4,N/A,,Scattered Clouds,320,2012-11-26 06:52:00
1:12 AM,23.9,7.7,50,30.17,10.0,NW,10.4,19.6,N/A,,Clear,320,2012-11-26 07:12:00
1:32 AM,22.8,8.8,55,30.17,10.0,NW,12.7,-,N/A,,Clear,320,2012-11-26 07:32:00
1:52 AM,21.9,9.5,59,30.19,10.0,NW,13.8,-,N/A,,Clear,320,2012-11-26 07:52:00
2:12 AM,21.2,10.0,62,30.20,10.0,NNW,11.5,-,N/A,,Clear,330,2012-11-26 08:12:00
2:32 AM,20.1,10.4,66,30.22,10.0,NW,10.4,17.3,N/A,,Clear,320,2012-11-26 08:32:00
2:52 AM,19.4,10.2,68,30.22,10.0,NW,12.7,17.3,N/A,,Clear,310,2012-11-26 08:52:00
3:12 AM,18.5,10.0,70,30.23,10.0,NNW,9.2,-,N/A,,Clear,330,2012-11-26 09:12:00
3:32 AM,18.1,10.0,71,30.24,10.0,NNW,9.2,-,N/A,,Clear,330,2012-11-26 09:32:00
3:52 AM,17.6,9.5,71,30.24,10.0,NW,9.2,-,N/A,,Clear,310,2012-11-26 09:52:00
4:12 AM,17.4,9.3,71,30.25,10.0,NNW,9.2,-,N/A,,Mostly Cloudy,340,2012-11-26 10:12:00
4:32 AM,17.2,9.3,71,30.25,10.0,NW,10.4,-,N/A,,Overcast,320,2012-11-26 10:32:00
4:52 AM,17.1,9.1,71,30.27,10.0,NW,8.1,-,N/A,,Overcast,320,2012-11-26 10:52:00
5:12 AM,17.1,9.1,71,30.27,10.0,NNW,8.1,-,N/A,,Overcast,330,2012-11-26 11:12:00
5:32 AM,16.7,9.1,72,30.28,10.0,NNW,8.1,-,N/A,,Overcast,330,2012-11-26 11:32:00
5:52 AM,16.5,9.1,73,30.28,10.0,NNW,5.8,-,N/A,,Overcast,330,2012-11-26 11:52:00
6:12 AM,16.3,9.1,73,30.30,10.0,NW,5.8,-,N/A,,Overcast,310,2012-11-26 12:12:00
6:32 AM,16.3,8.8,72,30.30,10.0,NW,6.9,-,N/A,,Overcast,310,2012-11-26 12:32:00
6:52 AM,15.8,8.6,73,30.31,10.0,NNW,5.8,-,N/A,,Overcast,340,2012-11-26 12:52:00
7:12 AM,15.8,8.2,72,30.32,10.0,NNW,9.2,-,N/A,,Overcast,340,2012-11-26 13:12:00
7:32 AM,15.8,8.4,73,30.33,10.0,NW,8.1,-,N/A,,Overcast,310,2012-11-26 13:32:00
7:52 AM,15.1,7.7,73,30.35,10.0,NW,9.2,-,N/A,,Overcast,320,2012-11-26 13:52:00
8:12 AM,14.5,7.5,74,30.35,10.0,NW,9.2,-,N/A,,Overcast,320,2012-11-26 14:12:00
8:32 AM,14.4,7.5,74,30.36,10.0,NNW,9.2,-,N/A,,Scattered Clouds,330,2012-11-26 14:32:00
8:52 AM,14.5,6.8,71,30.37,10.0,NNW,9.2,-,N/A,,Clear,330,2012-11-26 14:52:00
9:12 AM,15.6,7.3,70,30.38,10.0,NW,10.4,-,N/A,,Clear,320,2012-11-26 15:12:00
9:32 AM,15.8,7.2,69,30.38,10.0,NW,8.1,-,N/A,,Clear,320,2012-11-26 15:32:00
9:52 AM,17.2,7.7,66,30.39,10.0,NNW,6.9,-,N/A,,Clear,330,2012-11-26 15:52:00
10:12 AM,17.6,7.7,65,30.40,10.0,NW,4.6,-,N/A,,Clear,310,2012-11-26 16:12:00
10:32 AM,17.2,7.3,65,30.40,10.0,West,4.6,-,N/A,,Clear,280,2012-11-26 16:32:00
10:52 AM,18.3,7.7,63,30.41,10.0,West,3.5,-,N/A,,Clear,280,2012-11-26 16:52:00
11:12 AM,19.8,8.2,61,30.41,10.0,NNW,5.8,-,N/A,,Clear,340,2012-11-26 17:12:00
11:32 AM,20.1,8.4,61,30.40,10.0,West,3.5,-,N/A,,Clear,280,2012-11-26 17:32:00
11:52 AM,20.8,8.2,58,30.41,10.0,WNW,9.2,-,N/A,,Clear,290,2012-11-26 17:52:00
12:12 PM,21.4,8.2,57,30.41,10.0,WNW,6.9,-,N/A,,Clear,290,2012-11-26 18:12:00
12:32 PM,21.6,8.1,56,30.40,10.0,WNW,8.1,-,N/A,,Clear,300,2012-11-26 18:32:00
12:52 PM,22.6,7.5,52,30.39,10.0,NW,9.2,-,N/A,,Clear,320,2012-11-26 18:52:00
1:12 PM,23.0,7.7,52,30.39,10.0,NNW,8.1,-,N/A,,Clear,340,2012-11-26 19:12:00
1:32 PM,22.8,7.2,51,30.38,10.0,NW,9.2,-,N/A,,Clear,320,2012-11-26 19:32:00
1:52 PM,22.8,6.4,50,30.38,10.0,NW,8.1,-,N/A,,Clear,310,2012-11-26 19:52:00
2:12 PM,22.6,5.5,48,30.38,10.0,NW,3.5,-,N/A,,Clear,320,2012-11-26 20:12:00
2:32 PM,23.4,5.0,45,30.37,10.0,NW,5.8,-,N/A,,Clear,310,2012-11-26 20:32:00
2:52 PM,23.0,4.3,45,30.37,10.0,NW,8.1,-,N/A,,Clear,310,2012-11-26 20:52:00
3:12 PM,22.8,3.7,44,30.38,10.0,WNW,6.9,-,N/A,,Clear,300,2012-11-26 21:12:00
3:32 PM,22.6,4.6,46,30.38,10.0,WNW,10.4,-,N/A,,Clear,290,2012-11-26 21:32:00
3:52 PM,22.1,5.2,48,30.38,10.0,WNW,5.8,-,N/A,,Clear,300,2012-11-26 21:52:00
4:12 PM,21.9,5.7,50,30.38,10.0,WNW,4.6,-,N/A,,Clear,290,2012-11-26 22:12:00
4:32 PM,21.2,5.9,52,30.39,10.0,WNW,5.8,-,N/A,,Clear,290,2012-11-26 22:32:00
4:52 PM,20.8,6.4,54,30.39,10.0,WNW,5.8,-,N/A,,Clear,290,2012-11-26 22:52:00
5:12 PM,20.8,6.6,54,30.39,10.0,West,4.6,-,N/A,,Clear,280,2012-11-26 23:12:00
5:32 PM,20.5,6.8,56,30.39,10.0,WNW,3.5,-,N/A,,Clear,300,2012-11-26 23:32:00
5:52 PM,19.9,6.8,57,30.40,10.0,Calm,Calm,-,N/A,,Clear,0,2012-11-26 23:52:00
6:12 PM,19.4,7.2,59,30.40,10.0,West,3.5,-,N/A,,Clear,270,2012-11-27 00:12:00
6:32 PM,19.4,7.3,60,30.40,10.0,Calm,Calm,-,N/A,,Clear,0,2012-11-27 00:32:00
6:52 PM,18.3,7.5,63,30.39,10.0,Calm,Calm,-,N/A,,Clear,0,2012-11-27 00:52:00
7:12 PM,18.3,7.7,63,30.38,10.0,Calm,Calm,-,N/A,,Clear,0,2012-11-27 01:12:00
7:32 PM,18.1,7.7,64,30.38,10.0,Calm,Calm,-,N/A,,Clear,0,2012-11-27 01:32:00
7:52 PM,16.5,7.7,68,30.37,10.0,Calm,Calm,-,N/A,,Clear,0,2012-11-27 01:52:00
8:12 PM,17.1,8.4,69,30.37,10.0,Calm,Calm,-,N/A,,Clear,0,2012-11-27 02:12:00
8:32 PM,16.2,9.1,74,30.36,10.0,Calm,Calm,-,N/A,,Clear,0,2012-11-27 02:32:00
8:52 PM,16.2,8.2,71,30.37,10.0,Calm,Calm,-,N/A,,Clear,0,2012-11-27 02:52:00
9:12 PM,15.8,8.8,74,30.37,10.0,SSW,3.5,-,N/A,,Clear,200,2012-11-27 03:12:00
9:32 PM,17.2,8.2,68,30.37,10.0,SSW,3.5,-,N/A,,Clear,210,2012-11-27 03:32:00
9:52 PM,17.1,8.4,69,30.37,10.0,SSW,3.5,-,N/A,,Clear,200,2012-11-27 03:52:00
10:12 PM,16.0,7.7,70,30.36,10.0,Calm,Calm,-,N/A,,Clear,0,2012-11-27 04:12:00
10:32 PM,16.5,8.4,70,30.35,10.0,SSW,3.5,-,N/A,,Clear,200,2012-11-27 04:32:00
10:52 PM,16.5,8.4,70,30.35,10.0,South,3.5,-,N/A,,Clear,190,2012-11-27 04:52:00
11:12 PM,16.5,8.2,70,30.35,10.0,Calm,Calm,-,N/A,,Clear,0,2012-11-27 05:12:00
11:32 PM,16.5,8.2,70,30.35,10.0,Calm,Calm,-,N/A,,Clear,0,2012-11-27 05:32:00
11:52 PM,16.3,8.1,70,30.35,10.0,SSW,3.5,-,N/A,,Clear,210,2012-11-27 05:52:00